Flight Track Log - Related Links

Times and Time Zones

All times are in EDT time to prevent confusion due to time zone crossing. See the UPS1122 flight status page for this flight to view local times or setup timezone preferences in your user account.

Time Position Orientation Groundspeed Altitude Reporting Facility
EDT Latitude Longitude Course Direction KTS MPH feet Rate Location/Type
03:35AM 39.8616 -75.2701 251° West 156 180 900  Level FlightAware ADS-B
03:35AM 39.8590 -75.2783 248° West 158 182 1,400 2,182 Climbing FlightAware ADS-B
03:35AM 39.8551 -75.2894 245° Southwest 167 192 1,700 1,111 Climbing FlightAware ADS-B
03:36AM 39.8497 -75.3044 245° Southwest 187 215 1,900 1,000 Climbing FlightAware ADS-B
03:36AM 39.8461 -75.3142 244° Southwest 200 230 2,100 2,000 Climbing FlightAware ADS-B
03:36AM 39.8447 -75.3177 242° Southwest 204 235 2,300 3,000 Climbing FlightAware ADS-B
03:36AM 39.8432 -75.3210 239° Southwest 205 236 2,400 2,571 Climbing FlightAware ADS-B
03:36AM 39.8412 -75.3243 232° Southwest 205 236 2,600 3,429 Climbing FlightAware ADS-B
03:36AM 39.8387 -75.3275 225° Southwest 204 235 2,800 3,429 Climbing FlightAware ADS-B
03:36AM 39.8357 -75.3303 216° Southwest 204 235 3,000 3,429 Climbing FlightAware ADS-B
03:36AM 39.8330 -75.3322 208° Southwest 205 236 3,200 4,000 Climbing FlightAware ADS-B
03:36AM 39.8303 -75.3335 200° South 206 237 3,400 3,429 Climbing FlightAware ADS-B
03:36AM 39.8273 -75.3344 193° South 207 238 3,600 2,571 Climbing FlightAware ADS-B
03:36AM 39.8243 -75.3346 183° South 207 238 3,700 3,429 Climbing FlightAware ADS-B
03:36AM 39.8204 -75.3342 175° South 210 242 4,000 3,429 Climbing FlightAware ADS-B
03:36AM 39.8169 -75.3332 168° South 216 249 4,100 2,000 Climbing FlightAware ADS-B
03:37AM 39.8139 -75.3318 160° South 220 253 4,200 1,714 Climbing FlightAware ADS-B
03:37AM 39.8109 -75.3298 153° Southeast 227 261 4,300 1,714 Climbing FlightAware ADS-B
03:37AM 39.8080 -75.3274 148° Southeast 233 268 4,400 2,000 Climbing FlightAware ADS-B
03:37AM 39.8053 -75.3244 140° Southeast 239 275 4,500 3,000 Climbing FlightAware ADS-B
03:37AM 39.8027 -75.3208 133° Southeast 244 281 4,700 2,571 Climbing FlightAware ADS-B
03:37AM 39.8002 -75.3162 125° Southeast 249 287 4,800 2,250 Climbing FlightAware ADS-B
03:37AM 39.7984 -75.3116 117° Southeast 252 290 5,000 2,571 Climbing FlightAware ADS-B
03:37AM 39.7970 -75.3071 112° Southeast 255 293 5,100 2,571 Climbing FlightAware ADS-B
03:37AM 39.7959 -75.3010 103° East 261 300 5,300 2,571 Climbing FlightAware ADS-B
03:37AM 39.7953 -75.2964 100° East 265 305 5,400 2,667 Climbing FlightAware ADS-B
03:37AM 39.7949 -75.2857 93° East 271 312 5,700 2,857 Climbing FlightAware ADS-B
03:37AM 39.7952 -75.2621 89° East 278 320 6,400 3,000 Climbing FlightAware ADS-B
03:38AM 39.7954 -75.2363 89° East 284 327 7,200 3,200 Climbing FlightAware ADS-B
03:38AM 39.7954 -75.2097 90° East 291 335 8,000 3,200 Climbing FlightAware ADS-B
03:38AM 39.7952 -75.1827 91° East 297 342 8,800 3,097 Climbing FlightAware ADS-B
03:38AM 39.7951 -75.1553 90° East 301 346 9,600 3,261 Climbing FlightAware ADS-B
03:39AM 39.7955 -75.0983 89° East 309 356 11,300 3,246 Climbing FlightAware ADS-B
03:39AM 39.7958 -75.0394 90° East 322 371 12,900 3,143 Climbing FlightAware ADS-B
03:40AM 39.7960 -75.0181 89° East 327 376 13,500 3,000 Climbing FlightAware ADS-B
03:40AM 39.7964 -75.0085 87° East 333 383 13,700 2,000 Climbing FlightAware ADS-B
03:40AM 39.7974 -74.9991 82° East 341 392 13,800 1,500 Climbing FlightAware ADS-B
03:40AM 39.8003 -74.9827 77° East 354 407 14,000 1,600 Climbing FlightAware ADS-B
03:40AM 39.8042 -74.9688 70° East 364 419 14,200 1,385 Climbing FlightAware ADS-B
03:40AM 39.8083 -74.9579 64° Northeast 371 427 14,300 1,500 Climbing FlightAware ADS-B
03:41AM 39.8415 -74.8998 53° Northeast 408 470 15,100 2,000 Climbing FlightAware ADS-B
03:41AM 39.8784 -74.8405 51° Northeast 425 489 16,300 2,500 Climbing FlightAware ADS-B
03:42AM 39.9164 -74.7790 51° Northeast 438 504 17,600 2,762 Climbing FlightAware ADS-B
03:42AM 39.9575 -74.7115 52° Northeast 440 506 19,200 2,857 Climbing FlightAware ADS-B
03:43AM 39.9962 -74.6472 52° Northeast 442 509 20,600 1,770 Climbing FlightAware ADS-B
03:43AM 40.0352 -74.5823 52° Northeast 442 509 21,000 393 Climbing FlightAware ADS-B
03:44AM 40.0737 -74.5182 52° Northeast 440 506 21,000  Level FlightAware ADS-B
03:44AM 40.1114 -74.4554 52° Northeast 437 503 21,000  Level FlightAware ADS-B
03:45AM 40.1491 -74.3925 52° Northeast 439 505 21,000  Level FlightAware ADS-B
03:45AM 40.1876 -74.3283 52° Northeast 438 504 21,000  Level FlightAware ADS-B
03:46AM 40.2257 -74.2650 52° Northeast 439 505 21,000  Level FlightAware ADS-B
03:46AM 40.2637 -74.2014 52° Northeast 440 506 21,000  Level FlightAware ADS-B
03:47AM 40.3013 -74.1384 52° Northeast 442 509 21,000  Level FlightAware ADS-B
03:47AM 40.3393 -74.0746 52° Northeast 442 509 21,000  Level FlightAware ADS-B
03:48AM 40.3778 -74.0098 52° Northeast 443 510 21,000  Level FlightAware ADS-B
03:48AM 40.4158 -73.9458 52° Northeast 443 510 21,000  Level FlightAware ADS-B
03:49AM 40.4541 -73.8811 52° Northeast 442 509 21,000  Level FlightAware ADS-B
03:49AM 40.4922 -73.8168 52° Northeast 442 509 21,000  Level FlightAware ADS-B
03:50AM 40.5304 -73.7522 52° Northeast 440 506 21,000  Level FlightAware ADS-B
03:50AM 40.5684 -73.6879 52° Northeast 438 504 21,000  Level FlightAware ADS-B
03:51AM 40.6057 -73.6245 52° Northeast 436 502 21,000  Level FlightAware ADS-B
03:51AM 40.6429 -73.5610 52° Northeast 436 502 21,000  Level FlightAware ADS-B
03:52AM 40.6810 -73.4959 52° Northeast 435 501 21,000  Level FlightAware ADS-B
03:52AM 40.7184 -73.4327 52° Northeast 437 503 21,000  Level FlightAware ADS-B
03:53AM 40.7563 -73.3687 52° Northeast 436 502 21,000  Level FlightAware ADS-B
03:53AM 40.7726 -73.3414 52° Northeast 436 502 21,000  Level FlightAware ADS-B
03:53AM 40.7948 -73.3080 49° Northeast 435 501 21,000  Level FlightAware ADS-B
03:54AM 40.8454 -73.2450 43° Northeast 436 502 21,000  Level FlightAware ADS-B
03:54AM 40.8915 -73.1911 41° Northeast 436 502 21,000 -771 Level FlightAware ADS-B
03:55AM 40.9508 -73.1215 42° Northeast 429 494 20,100 -1,886 Descending FlightAware ADS-B
03:55AM 40.9977 -73.0663 42° Northeast 438 504 18,800 -2,313 Descending FlightAware ADS-B
03:57AM 41.0950 -72.9520 42° Northeast 432 497 16,400 -2,195 Descending FlightAware
03:57AM 41.1219 -72.9202 42° Northeast 426 490 15,800 -2,167 Descending FlightAware ADS-B
03:58AM 41.1970 -72.8310 42° Northeast 415 478 13,800 -2,217 Descending FlightAware
03:58AM 41.2470 -72.7720 42° Northeast 405 466 12,400 -1,105 Descending FlightAware
03:59AM 41.2930 -72.7170 42° Northeast 405 466 12,400  Level FlightAware
04:00AM 41.3360 -72.6660 42° Northeast 405 466 12,400  Level FlightAware
04:00AM 41.3780 -72.6150 42° Northeast 405 466 12,400 -1,579 Level FlightAware
04:01AM 41.5186 -72.7036 42° Northeast 346 398 9,900 -1,707 Descending Boston Center
04:02AM 41.5894 -72.7011 North 303 349 9,100 -974 Descending Boston Center
04:03AM 41.6769 -72.7014 360° North 284 327 8,000 -1,150 Descending Boston Center
04:04AM 41.7456 -72.7017 360° North 277 319 6,800 -1,240 Descending Boston Center
04:05AM 41.8228 -72.6992 North 271 312 5,500 -1,377 Descending Boston Center
04:06AM 41.8772 -72.6214 47° Northeast 257 296 4,000 -1,000 Descending Boston Center
04:07AM 41.9356 -72.5406 46° Northeast 262 302 3,500 -610 Descending Boston Center
04:08AM 41.9794 -72.4792 46° Northeast 257 296 2,800 -504 Descending Boston Center
04:09AM 42.0378 -72.4708 North 188 216 2,500 -148 Descending Boston Center
04:10AM 42.0544 -72.5294 291° West 163 188 2,500 -200 Level Boston Center
04:11AM 42.0211 -72.5825 230° Southwest 134 154 2,100 -578 Descending Boston Center
04:12AM 41.9814 -72.6300 222° Southwest 113 130 1,200 -652 Descending Boston Center
04:13AM 41.9583 -72.6606 225° Southwest 111 128 600 -590 Descending Boston Center

Login

Don't have an account? Register now (free) for customized features, flight alerts, and more!